Location: ????????
(55.7667°N, 37.4833°E)
Time: 14:43:11
(UTC+00:00)

Cosmos 1908 - Pass Details

Date: 19 May 2025
Orbit: 404 x 413 km, 82.5° (Epoch: 20 June)

Event Time Altitude Azimuth Distance (km) Brightness Sun altitude
Rises 19:58:13 0° 353° (N) 2,387 8.3 -12.0°
Reaches altitude 10° 20:00:22 10° 2° (N) 1,514 6.7 -12.1°
Maximum altitude 20:03:28 37° 71° (ENE) 678 3.8 -12.2°
Enters shadow 20:05:25 18° 130° (SE) 1,090 4.3 -12.3°
